When you browse on this site, cookies collect data to enhance your experience and personalize the content and advertising you see.
Visit our Privacy Policy to learn more. By continuing to use the site, you agree to this use of cookies and data.
  • In Spain
  • List of Countries
  • For 7 days
  • Water Temperature
  • Weather Map
  • Weather Widgets
  • user-avatar
    Login

    Hourly Weather Valutino

    Today, 6 June, Saturday

    Time Temperature Precipitation Wind Pressure Humidity
    00:00 +10°C° 0 mm 3 mps 739 mmHg 93%
    01:00 +10°C° 0 mm 3 mps 739 mmHg 94%
    02:00 +10°C° 0 mm 3 mps 739 mmHg 95%
    03:00 +11°C° 0 mm 3 mps 739 mmHg 95%
    04:00 +11°C° 0 mm 3 mps 739 mmHg 96%
    05:00 +12°C° 0 mm 3 mps 739 mmHg 96%
    06:00 +14°C° 0 mm 4 mps 739 mmHg 93%
    07:00 +15°C° 0 mm 4 mps 739 mmHg 89%
    08:00 +17°C° 0 mm 5 mps 739 mmHg 86%
    09:00 +19°C° 0.3 mm 4 mps 739 mmHg 87%
    10:00 +19°C° 0.3 mm 4 mps 739 mmHg 87%
    11:00 +20°C° 0.3 mm 3 mps 740 mmHg 88%
    12:00 +20°C° 1.4 mm 3 mps 740 mmHg 88%
    13:00 +20°C° 1.4 mm 4 mps 740 mmHg 88%
    14:00 +21°C° 1.4 mm 4 mps 740 mmHg 88%
    15:00 +21°C° 0.4 mm 4 mps 740 mmHg 88%
    16:00 +21°C° 0.4 mm 4 mps 740 mmHg 87%
    17:00 +21°C° 0.4 mm 4 mps 740 mmHg 87%
    18:00 +20°C° 0.1 mm 3 mps 741 mmHg 89%
    19:00 +19°C° 0.1 mm 2 mps 741 mmHg 92%
    20:00 +18°C° 0.1 mm 2 mps 741 mmHg 95%
    21:00 +17°C° 0 mm 2 mps 742 mmHg 95%
    22:00 +16°C° 0 mm 2 mps 742 mmHg 95%
    23:00 +15°C° 0 mm 2 mps 743 mmHg 95%

    Tomorrow, 7 June, Sunday

    Time Temperature Precipitation Wind Pressure Humidity
    00:00 +15°C° 0 mm 2 mps 743 mmHg 95%
    01:00 +14°C° 0 mm 1 mps 744 mmHg 94%
    02:00 +14°C° 0 mm 1 mps 744 mmHg 94%
    03:00 +14°C° 0 mm 1 mps 744 mmHg 93%
    04:00 +14°C° 0 mm 1 mps 745 mmHg 92%
    05:00 +15°C° 0 mm 1 mps 745 mmHg 92%
    06:00 +16°C° 0 mm 1 mps 745 mmHg 86%
    07:00 +19°C° 0 mm 1 mps 746 mmHg 81%
    08:00 +21°C° 0 mm 1 mps 746 mmHg 76%
    09:00 +22°C° 0 mm 1 mps 746 mmHg 70%
    10:00 +24°C° 0 mm 1 mps 746 mmHg 65%
    11:00 +25°C° 0 mm 1 mps 747 mmHg 60%
    12:00 +26°C° 0 mm 1 mps 746 mmHg 58%
    13:00 +26°C° 0 mm 1 mps 746 mmHg 57%
    14:00 +26°C° 0 mm 1 mps 746 mmHg 55%
    15:00 +26°C° 0 mm 1 mps 746 mmHg 59%
    16:00 +26°C° 0 mm 2 mps 746 mmHg 62%
    17:00 +26°C° 0 mm 2 mps 746 mmHg 66%
    18:00 +24°C° 0 mm 2 mps 745 mmHg 72%
    19:00 +21°C° 0 mm 2 mps 745 mmHg 77%
    20:00 +20°C° 0 mm 2 mps 745 mmHg 82%
    21:00 +19°C° 0 mm 2 mps 745 mmHg 85%
    22:00 +18°C° 0 mm 2 mps 746 mmHg 88%
    23:00 +18°C° 0 mm 2 mps 746 mmHg 91%

    Day after tomorrow, 8 June, Monday

    Time Temperature Precipitation Wind Pressure Humidity
    00:00 +17°C° 0 mm 2 mps 746 mmHg 93%
    01:00 +17°C° 0 mm 2 mps 746 mmHg 94%
    02:00 +17°C° 0 mm 2 mps 746 mmHg 95%
    03:00 +17°C° 0 mm 2 mps 746 mmHg 95%
    04:00 +18°C° 0 mm 2 mps 746 mmHg 95%
    05:00 +18°C° 0 mm 2 mps 746 mmHg 94%
    06:00 +20°C° 0 mm 2 mps 746 mmHg 90%
    07:00 +21°C° 0 mm 2 mps 746 mmHg 87%
    08:00 +24°C° 0 mm 2 mps 746 mmHg 83%
    09:00 +25°C° 0.2 mm 3 mps 746 mmHg 79%
    10:00 +26°C° 0.2 mm 3 mps 746 mmHg 76%
    11:00 +27°C° 0.2 mm 3 mps 746 mmHg 73%
    12:00 +27°C° 1.2 mm 3 mps 746 mmHg 74%
    13:00 +27°C° 1.2 mm 3 mps 746 mmHg 75%
    14:00 +27°C° 1.2 mm 2 mps 746 mmHg 76%
    15:00 +27°C° 1.5 mm 2 mps 746 mmHg 77%
    16:00 +27°C° 1.5 mm 1 mps 745 mmHg 78%
    17:00 +27°C° 1.5 mm 1 mps 745 mmHg 79%
    18:00 +25°C° 0.2 mm 1 mps 745 mmHg 83%
    19:00 +24°C° 0.2 mm 1 mps 745 mmHg 86%
    20:00 +23°C° 0.2 mm 1 mps 745 mmHg 89%
    21:00 +22°C° 0 mm 1 mps 745 mmHg 90%
    22:00 +21°C° 0 mm 1 mps 745 mmHg 92%
    23:00 +20°C° 0 mm 1 mps 746 mmHg 93%

    9 June, Tuesday

    Time Temperature Precipitation Wind Pressure Humidity
    00:00 +20°C° 0.1 mm 1 mps 746 mmHg 93%
    01:00 +20°C° 0.1 mm 1 mps 746 mmHg 94%
    02:00 +19°C° 0.1 mm 1 mps 745 mmHg 94%
    03:00 +20°C° 0.2 mm 1 mps 746 mmHg 94%
    04:00 +20°C° 0.2 mm 1 mps 746 mmHg 94%
    05:00 +20°C° 0.2 mm 1 mps 746 mmHg 94%
    06:00 +22°C° 0 mm 1 mps 746 mmHg 90%
    07:00 +23°C° 0 mm 1 mps 746 mmHg 85%
    08:00 +25°C° 0 mm 1 mps 746 mmHg 81%
    09:00 +26°C° 0 mm 1 mps 746 mmHg 76%
    10:00 +27°C° 0 mm 1 mps 746 mmHg 72%
    11:00 +28°C° 0 mm 2 mps 746 mmHg 67%
    12:00 +28°C° 0.5 mm 1 mps 746 mmHg 67%
    13:00 +28°C° 0.5 mm 1 mps 746 mmHg 67%
    14:00 +28°C° 0.5 mm 1 mps 746 mmHg 67%
    15:00 +27°C° 0.7 mm 1 mps 746 mmHg 73%
    16:00 +27°C° 0.7 mm 2 mps 746 mmHg 79%
    17:00 +26°C° 0.7 mm 2 mps 746 mmHg 85%
    18:00 +25°C° 0.2 mm 2 mps 746 mmHg 88%
    19:00 +24°C° 0.2 mm 2 mps 746 mmHg 90%
    20:00 +23°C° 0.2 mm 2 mps 746 mmHg 93%
    21:00 +21°C° 0 mm 2 mps 746 mmHg 94%
    22:00 +21°C° 0 mm 2 mps 746 mmHg 95%
    23:00 +20°C° 0 mm 2 mps 746 mmHg 97%

    10 June, Wednesday

    Time Temperature Precipitation Wind Pressure Humidity
    00:00 +19°C° 0 mm 2 mps 746 mmHg 97%
    01:00 +19°C° 0 mm 2 mps 746 mmHg 97%
    02:00 +19°C° 0 mm 2 mps 746 mmHg 98%
    03:00 +19°C° 0 mm 2 mps 746 mmHg 97%
    04:00 +19°C° 0 mm 2 mps 746 mmHg 97%
    05:00 +19°C° 0 mm 3 mps 746 mmHg 97%
    06:00 +20°C° 0 mm 3 mps 746 mmHg 94%
    07:00 +21°C° 0 mm 3 mps 746 mmHg 90%
    08:00 +22°C° 0 mm 3 mps 746 mmHg 86%
    09:00 +24°C° 0.1 mm 3 mps 746 mmHg 81%
    10:00 +25°C° 0.1 mm 3 mps 745 mmHg 76%
    11:00 +26°C° 0.1 mm 3 mps 745 mmHg 70%
    12:00 +27°C° 0.1 mm 3 mps 745 mmHg 68%
    13:00 +27°C° 0.1 mm 3 mps 745 mmHg 66%
    14:00 +28°C° 0.1 mm 3 mps 744 mmHg 64%
    15:00 +27°C° 0.1 mm 3 mps 744 mmHg 68%
    16:00 +27°C° 0.1 mm 3 mps 744 mmHg 71%
    17:00 +27°C° 0.1 mm 3 mps 744 mmHg 75%
    18:00 +25°C° 0.1 mm 2 mps 744 mmHg 80%
    19:00 +23°C° 0.1 mm 2 mps 744 mmHg 85%
    20:00 +21°C° 0.1 mm 2 mps 744 mmHg 90%
    21:00 +20°C° 0 mm 2 mps 744 mmHg 91%
    22:00 +19°C° 0 mm 2 mps 744 mmHg 93%
    23:00 +18°C° 0 mm 2 mps 744 mmHg 95%

    11 June, Thursday

    Time Temperature Precipitation Wind Pressure Humidity
    00:00 +18°C° 0 mm 2 mps 743 mmHg 95%
    01:00 +18°C° 0 mm 2 mps 743 mmHg 96%
    02:00 +17°C° 0 mm 2 mps 743 mmHg 96%
    03:00 +18°C° 0 mm 2 mps 743 mmHg 96%
    04:00 +18°C° 0 mm 2 mps 743 mmHg 96%
    05:00 +18°C° 0 mm 2 mps 743 mmHg 96%
    06:00 +20°C° 0 mm 2 mps 743 mmHg 91%
    07:00 +21°C° 0 mm 2 mps 743 mmHg 86%
    08:00 +24°C° 0 mm 2 mps 743 mmHg 81%
    09:00 +25°C° 0.1 mm 2 mps 743 mmHg 77%
    10:00 +26°C° 0.1 mm 2 mps 742 mmHg 73%
    11:00 +27°C° 0.1 mm 2 mps 742 mmHg 69%
    12:00 +27°C° 0.9 mm 2 mps 742 mmHg 68%
    13:00 +28°C° 0.9 mm 2 mps 742 mmHg 67%
    14:00 +28°C° 0.9 mm 2 mps 741 mmHg 66%
    15:00 +28°C° 0.2 mm 2 mps 741 mmHg 67%
    16:00 +28°C° 0.2 mm 1 mps 741 mmHg 67%
    17:00 +28°C° 0.2 mm 1 mps 741 mmHg 68%
    18:00 +26°C° 0.1 mm 1 mps 741 mmHg 74%
    19:00 +24°C° 0.1 mm 1 mps 741 mmHg 80%
    20:00 +23°C° 0.1 mm 1 mps 741 mmHg 86%
    21:00 +22°C° 0 mm 1 mps 741 mmHg 88%
    22:00 +21°C° 0 mm 1 mps 741 mmHg 89%
    23:00 +20°C° 0 mm 1 mps 741 mmHg 91%
    Show more